Regional Weather Roundup
Issued by NWS Charleston, SC

Current Version | Previous Version | Text Only | Print | Product List | Glossary Off
Versions: 1 2 3 4 5 6 7 8 9 10 11 12 13 14 15 16 17 18 19 20 21 22 23 24 25 26 27 28 29 30 31 32 33 34 35 36 37 38 39 40 41 42 43 44 45 46 47 48 49 50
000 ASUS42 KCHS 050526 RWRCHS REGIONAL WEATHER ROUNDUP NATIONAL WEATHER SERVICE CHARLESTON SC 1200 AM EST THU MAR 05 2015 NOTE: "FAIR" INDICATES FEW OR NO CLOUDS BELOW 12,000 FEET WITH NO SIGNIFICANT WEATHER AND/OR OBSTRUCTIONS TO VISIBILITY. NOT ALL STATIONS ARE QUALITY CONTROLLED BY THE NATIONAL WEATHER SERVICE. USE DATA WITH CAUTION...ESPECIALLY DEWPOINT OBSERVATIONS. SCZ027-030-031-034>040-042>050-050600- ...SOUTHEAST SOUTH CAROLINA... CITY SKY/WX TMP DP RH WIND PRES REMARKS N CHARLESTON PTCLDY 66 62 87 SW12 30.02F WATERFRONT PRK N/A 63 N/A N/A SW16G23 N/A MOUNT PLEASANT FAIR 66 63 88 SW12G18 30.02F PINOPOLIS NOT AVBL MONCKS CORNER FAIR 68 63 83 S7 30.00S SUMMERVILLE FAIR 64 63 94 S5 30.01F BEAUFORT MCAS PTCLDY 61 59 93 S5 30.02F BEAUFORT ARPT FAIR 61 59 94 S6 30.02F HILTON HEAD IS CLEAR 61 59 94 S8 30.05S WALTERBORO CLEAR 64 63 94 S5 30.01F ALLENDALE FAIR 68 61 77 VRB5 29.98F ...SOUTHERN MIDLANDS AND PEE DEE... CITY SKY/WX TMP DP RH WIND PRES REMARKS GEORGETOWN NOT AVBL KINGSTREE NOT AVBL ORANGEBURG CLEAR 66 60 81 S10 29.97F BARNWELL FAIR 70 59 68 S12 29.97S AIKEN FAIR 68 57 68 SW16 29.98S MANNING FAIR 64 64 100 S5 29.98F COLUMBIA PTCLDY 67 56 67 S7 29.93F SUMTER CLEAR 65 61 87 S12 29.93F FLORENCE CLEAR 67 61 81 S13 29.94F MYRTLE BEACH PTCLDY 72 64 78 SW13G23 30.02S N MYRTLE BEACH MOCLDY 61 60 97 SW17 29.99F FOG $$ GAZ063-065-086>088-099>101-113>116-118-119-134>141-150-050600- ...SOUTHEAST GEORGIA... CITY SKY/WX TMP DP RH WIND PRES REMARKS SAVANNAH ARPT MOCLDY 65 60 84 S7 30.03F HUNTER AAF NOT AVBL FORT STEWART CLOUDY 69 62 79 SW10 30.01F STATESBORO CLEAR 69 63 81 SW9 30.00F SYLVANIA CLEAR 67 62 83 SW7 30.01F CLAXTON FAIR 68 64 88 SW5 30.02F ...CSRA...CENTRAL AND FAR SOUTHEAST GEORGIA... CITY SKY/WX TMP DP RH WIND PRES REMARKS THOMSON CLEAR 69 64 81 SW7G16 30.00R AUGUSTA-BUSH CLEAR 69 58 67 S14 29.95F AUGUSTA-DANIEL CLEAR 71 59 65 SW14G23 29.95F SWAINSBORO FAIR 70 55 60 SW8G17 29.99F VIDALIA CLEAR 68 63 83 SW7 30.02F EASTMAN FAIR 67 67 100 SW8 30.03S HAZLEHURST FAIR 69 67 93 SW8 30.02S ALMA PTCLDY 67 63 87 S6 30.03F WAYCROSS MOCLDY 70 68 95 SW7 30.05S JESUP FAIR 68 64 88 CALM 30.04S BAXLEY CLOUDY 70 64 83 SW5 30.03F BRUNSWICK CLEAR 59 55 88 CALM 30.05F SAINT SIMONS CLEAR 58 56 93 CALM 30.05F $$ SCZ027-028-034-036>038-045-046-048>050-GAZ119-141-050600- ...LAKE AND SUPPLEMENTAL COASTAL OBSERVATIONS... STATION/POSITION TIME TEMP WIND PRES WAVE SWELL AIR SEA DIR/SP/G HT/PER HT/PER/DIR (UTC) (F) (DEG/KT/KT) (MB) (FT/S) (FT/S/D) UPR LAKE MARION NOT AVBL WINYAH BAY 0445 68 220/ 15 1015.0S LAKE MURRAY 0400 63 210/ 8/ 10 1013.2S ACE BASIN NERRS NOT AVBL FORT PULASKI 0500 58 52 190/ 5/ 8 1017.6F SAPELO ISLAND 0500 59 160/ 6 1017.0S $$ ANZ835-935-AMZ111-154-330-350-352-354-370-450-454-472-050600- ...C-MAN AND BUOY OBSERVATIONS... STATION/POSITION TIME TEMP WIND PRES WAVE SWELL AIR SEA DIR/SP/G HT/PER HT/PER/DIR (UTC) (F) (DEG/KT/KT) (MB) (FT/S) (FT/S/D) BUOY 41004 0450 72 69 200/ 19/ 23 1016.1R 7/ 7 2/ 9 BUOY 41008 0450 58 53 190/ 14/ 16 1017.4F 4/ 6 2/130/ 9 FOLLY BEACH CMAN 0500 53 220/ 10/ 11 1017.2F CAPERS NEARSHORE 0400 52 240/ 6/ 8 N/A FRIPP NEARSHORE 0400 55 250/ 10/ 12 1017.2R STATION/POSITION TIME TEMP WIND PRES WAVE SWELL AIR SEA DIR/SP/G HT/PER HT/PER/DIR (UTC) (F) (DEG/KT/KT) (MB) (FT/S) (FT/S/D) 5E ST. MARYS GA 0421 56 N/A 3/10 2/120/11 FRYING PAN BUOY 0450 68 62 200/ 16/ 17 1016.7F 6/ 7 2/140/ 8 BUOY 41025 NOT AVBL CAPE LOOKOUT NC 0500 59 230/ 9/ 12 1015.7F BUOY 41002 0450 73 74 220/ 19/ 23 1021.1F 6/10 3/130/10 BUOY 41010 0420 74 75 160/ 17/ 19 1020.9F ST AUGUSTINE FL 0500 64 180/ 5/ 7 1019.2F $$

USA.gov is the U.S. government's official web portal to all federal, state and local government web resources and services.